Tracking 21076 objects as of 7-Aug-2020
HD Live streaming from Space Station
objects crossing your sky now

RSP-00

Track RSP-00 now!
10-day predictions
RSP-00 is classified as:


NORAD ID: 43639
Int'l Code: 1998-067PP
Perigee: 362.4 km
Apogee: 366.6 km
Inclination: 51.6 °
Period: 91.7 minutes
Semi major axis: 6735 km
RCS: Unknown
Launch date: November 20, 1998
Source: (TBD)
Launch site: TYURATAM MISSILE AND SPACE COMPLEX (TTMTR)

Uplink (MHz):
Downlink (MHz): 145.890/436.930
Beacon (MHz): 145.890
Mode: 1k2AFSK 38k4 pi/4QPSK CW
Call sign: 8J1RSP
Status: Inactive

aabbcc
Your satellite tracking list
Your tracking list is empty




NASA's NSSDC Master Catalog

Two Line Element Set (TLE):
1 43639U 98067PP  20219.78588529  .00023433  00000-0  19067-3 0  9992
2 43639  51.6356  46.2193 0003133 230.7463 129.3257 15.70550237104709
Source of the keplerian elements: AFSPC